Miscellaneous Local Product
Issued by NWS North Platte, NE

Home | Current Version | Previous Version | Text Only | Print | Product List | Glossary On
Versions: 1 2 3 4 5 6 7 8 9 10 11 12 13 14 15 16 17 18 19 20 21 22 23 24 25 26 27 28 29 30 31 32 33 34 35 36 37 38 39 40 41 42 43 44 45 46 47 48 49 50
000
AXUS43 KLBF 190810
MISLBF


WESTERN AND NORTH CENTRAL NEBRASKA HOURLY WEATHER ROUNDUP
NATIONAL WEATHER SERVICE NORTH PLATTE NE
300 AM CDT MON AUG 19 2019

NOTE: "FAIR" INDICATES FEW OR NO CLOUDS BELOW 12,000 FEET WITH NO
SIGNIFICANT WEATHER AND/OR OBSTRUCTIONS TO VISIBILITY.

NOTE: STATIONS NOT REPORTING SKY/WEATHER AND PRESSURE ARE
PROVIDED BY RAWS AND APRS NETWORKS AND ARE NOT UNDER NATIONAL
WEATHER SERVICE QUALITY CONTROL.

...OBSERVATIONS IN AND NEAR THE EASTERN PANHANDLE OF NEBRASKA...

CITY           SKY/WX    TMP DP  RH WIND       PRES   REMARKS
PINE RIDGE     CLEAR     69  60  73 VRB5      29.95S
GORDON         FAIR      60  57  91 CALM      29.97F
CHADRON        CLEAR     63  58  83 CALM      29.94S
ALLIANCE       CLEAR     64  61  90 SE14      29.97F
SIDNEY         CLEAR     63  59  87 S9        30.02S
CRESCENT LAKE    N/A     64  62  94 SE7         N/A
$$

...OBSERVATIONS IN NORTHERN NEBRASKA AND FAR SOUTHERN SOUTH DAKOTA...

CITY           SKY/WX    TMP DP  RH WIND       PRES   REMARKS
WINNER         FAIR      65  58  78 S9        29.95S
VALENTINE      CLEAR     64  60  87 SE7       29.97S
AINSWORTH      CLEAR     60  60 100 S7        29.99R
O`NEILL        FAIR      63  61  93 S5        29.99S
THEDFORD       CLEAR     63  62  96 SE7       30.01S
BROKEN BOW     FAIR      61  61 100 SE5       30.00S
ORD            FAIR      60  59  96 S3        29.99R
ALBION         CLEAR     62  62  99 CALM      30.00R FOG
EWING            N/A     60  59  96 CALM        N/A
CHAMBERS         N/A     62  60  95 CALM        N/A
BUTTE            N/A     60  57  90 S6          N/A
SPRINGVIEW       N/A     59  57  94 CALM        N/A
VALENTINE NWR    N/A     62  62  99 S8          N/A
HALSEY           N/A     62  60  95 SE7         N/A
$$

...OBSERVATIONS IN SOUTHWEST NEBRASKA AND FAR NORTHEAST COLORADO...

CITY           SKY/WX    TMP DP  RH WIND       PRES   REMARKS
WRAY           CLOUDY    66  64  94 SE8       30.00
HOLYOKE        FAIR      64  63  94 SE7       30.00
IMPERIAL       CLEAR     66  62  87 SE9       29.98S
OGALLALA       CLEAR     65  64  98 E6        29.99S
NORTH PLATTE   CLOUDY    65  64  97 SE12      29.99S FOG
MCCOOK         PTCLDY    66  64  93 E7        29.98R FOG
LEXINGTON      FAIR      63  63 100 E5        30.00S FOG
CALLAWAY         N/A     64  62  95 SE7         N/A
STAPLETON        N/A     63  62  96 E3          N/A
$$

...OBSERVATIONS IN CENTRAL LINCOLN COUNTY AREA...

CITY           SKY/WX    TMP DP  RH WIND       PRES   REMARKS
N.P. AIRPORT   CLOUDY    65  64  97 SE12      29.99S FOG
N.P. HILLCREST   N/A     64  63  97 E12         N/A
N.P. DOWNTOWN    N/A     65  64  95 CALM        N/A
N.P. SOUTHEAST   N/A     64  62  95 CALM        N/A
$$

...OBSERVATIONS ACROSS THE ROCKIES AND WESTERN HIGH PLAINS...

CITY           SKY/WX    TMP DP  RH WIND       PRES   REMARKS
SCOTTSBLUFF    CLEAR     64  62  93 E9        29.97S
KIMBALL        CLEAR     63  54  71 SW3       30.04S
CHEYENNE       CLEAR     59  33  37 W9        30.12R
DENVER         CLEAR     66  50  56 S9        30.05F
STEAMBOAT      FAIR      50  36  59 W3        30.21
COPPER MTN     CLEAR     55  19  24 W10G21    30.64
LEADVILLE      CLEAR     43  24  47 E5        30.47S
ASPEN          CLEAR     53  30  41 S7        30.30S
GUNNISON       CLEAR     46  36  68 CALM      30.34S
TELLURIDE      PTCLDY    54  27  35 SE5       30.44
LARAMIE        CLEAR     51  26  37 S9        30.21S
CASPER         CLEAR     55  33  43 W5        30.03S
SHERIDAN       CLEAR     54  47  77 CALM      29.90F
JACKSON HOLE   CLEAR     49  34  56 CALM      30.13S
YELLOWSTONE      N/A     41  35  79 NW3       30.21S
$$

...OBSERVATIONS ACROSS THE NORTHERN PLAINS...

CITY           SKY/WX    TMP DP  RH WIND       PRES   REMARKS
RAPID CITY     CLEAR     56  54  93 CALM      29.94S
PIERRE         CLEAR     62  56  80 SE10      29.90F
SIOUX FALLS    CLEAR     57  55  93 CALM      29.98R
ABERDEEN       CLEAR     58  53  84 S6        29.92S
WILLISTON      PTCLDY    55  49  80 CALM      29.82R
DICKINSON      CLEAR     55  53  93 S10       29.84F
BISMARCK       CLEAR     63  55  75 S7        29.86F
FARGO          CLEAR     57  51  80 S10       29.87F
$$

...OBSERVATIONS ACROSS THE CENTRAL AND SOUTHERN PLAINS...

CITY           SKY/WX    TMP DP  RH WIND       PRES   REMARKS
OMAHA          PTCLDY    70  68  93 N5        29.96F
GRAND ISLAND   CLEAR     62  60  93 E5        30.00S
KANSAS CITY    CLEAR     73  69  87 NE5       29.95R
WICHITA        PTCLDY    79  74  84 SE14      29.89F
DODGE CITY     CLEAR     73  70  90 SE10      29.93F
OKLAHOMA CITY  PTCLDY    79  71  76 S9        29.90F
DALLAS         PTCLDY    86  71  60 SE9       29.91R HX  91
AMARILLO       CLEAR     77  59  53 S12       30.00S
$$



USA.gov is the U.S. government's official web portal to all federal, state and local government web resources and services.